Weather History for KSPB - March, 2013

Change the Weather History Date:

Tuesday, March 19, 2013

  Actual Average Record
Temperature  
Mean Temperature 41 °F -  
Max Temperature 50 °F - 69 °F (1999)
Min Temperature 32 °F - 27 °F (2012)
Degree Days  
Heating Degree Days 24    
Month to date heating degree days 371  
Since 1 July heating degree days 3752  
Cooling Degree Days 0    
Month to date cooling degree days 0  
Year to date cooling degree days 0  
Moisture  
Dew Point 38 °F    
Average Humidity 76    
Maximum Humidity 96    
Minimum Humidity 56    
Precipitation  
Precipitation 0.68 in - 0.78 in (2005)
Month to date precipitation 1.78  
Year to date precipitation 5.64  
Sea Level Pressure  
Sea Level Pressure 29.90 in    
Wind  
Wind Speed 3 mph (South)    
Max Wind Speed 12 mph    
Max Gust Speed 15 mph    
Visibility 8 miles    
Events Rain    
T = Trace of Precipitation, MM = Missing Value Source: NWS Daily Summary

Daily Weather History Graph

Daily Weather History Graph

Search for Another Location

Airport or City:

Trip Planner

Search our weather history database for the weather conditions in past years. The results will help you decide how hot, cold, wet, or windy it might be!

Date:

Astronomy

Mar. 19, 2013 Rise Set
Actual Time 7:15 AM PDT 7:23 PM PDT
Civil Twilight 6:46 AM PDT 7:52 PM PDT
Nautical Twilight 6:11 AM PDT 8:27 PM PDT
Astronomical Twilight 5:35 AM PDT 9:03 PM PDT
Moon 11:53 AM PDT (3/19) 2:31 AM PDT (3/19)
Length of Visible Light 13h 06m
Length of Day
12h 07m
Waxing Crescent, 51% of the Moon is Illuminated
Mar 19
Waxing Crescent
Mar 27
Full
Apr 2
Last Quarter
Apr 10
New
Apr 18
First Quarter

Hourly Weather History & Observations

Time (PDT) Temp. Windchill Dew Point Humidity Pressure Visibility Wind Dir Wind Speed Gust Speed Precip Events Conditions
12:53 AM 35.1 °F - 33.1 °F 92% 30.16 in 10.0 mi Calm Calm - N/A   Clear
1:53 AM 33.1 °F - 32.0 °F 96% 30.14 in 10.0 mi Calm Calm - N/A   Clear
2:53 AM 33.1 °F 28.7 °F 30.9 °F 92% 30.13 in 10.0 mi NW 4.6 mph - N/A   Clear
3:53 AM 32.0 °F 28.7 °F 30.0 °F 92% 30.11 in 10.0 mi East 3.5 mph - N/A   Clear
4:53 AM 34.0 °F - 32.0 °F 92% 30.09 in 10.0 mi Calm Calm - N/A   Clear
5:53 AM 32.0 °F - 30.9 °F 96% 30.08 in 10.0 mi Calm Calm - N/A   Clear
6:53 AM 33.1 °F - 32.0 °F 96% 30.07 in 10.0 mi Calm Calm - N/A   Clear
7:53 AM 35.1 °F - 33.1 °F 92% 30.06 in 10.0 mi Calm Calm - N/A   Scattered Clouds
8:53 AM 37.9 °F 35.5 °F 35.1 °F 89% 30.06 in 10.0 mi SW 3.5 mph - N/A   Scattered Clouds
9:53 AM 44.1 °F 41.5 °F 35.1 °F 71% 30.05 in 10.0 mi SSW 4.6 mph - N/A   Mostly Cloudy
10:53 AM 46.0 °F - 34.0 °F 63% 30.03 in 10.0 mi Calm Calm - N/A   Overcast
11:53 AM 48.0 °F - 34.0 °F 58% 30.01 in 10.0 mi ESE 4.6 mph - N/A   Overcast
12:53 PM 48.9 °F - 35.1 °F 59% 30.00 in 10.0 mi Calm Calm - N/A   Overcast
1:53 PM 50.0 °F - 37.0 °F 61% 29.97 in 10.0 mi Calm Calm - 0.00 in Rain Light Rain
2:53 PM 50.0 °F - 41.0 °F 71% 29.93 in 10.0 mi Calm Calm - 0.00 in Rain Light Rain
3:53 PM 48.0 °F - 42.1 °F 80% 29.91 in 7.0 mi SW 4.6 mph - 0.03 in Rain Light Rain
4:53 PM 46.0 °F - 41.0 °F 83% 29.88 in 7.0 mi Calm Calm - 0.04 in Rain Light Rain
5:53 PM 45.0 °F - 42.1 °F 90% 29.85 in 9.0 mi Calm Calm - 0.07 in Rain Light Rain
6:53 PM 44.1 °F 40.1 °F 39.9 °F 85% 29.81 in 6.0 mi South 6.9 mph - 0.04 in Rain Light Rain
7:05 PM 42.8 °F 38.6 °F 41.0 °F 93% 29.81 in 5.0 mi SSW 6.9 mph - 0.03 in Rain Rain
7:53 PM 43.0 °F 40.3 °F 41.0 °F 93% 29.77 in 8.0 mi South 4.6 mph - 0.13 in Rain Light Rain
8:14 PM 42.8 °F 40.1 °F 41.0 °F 93% 29.76 in 4.0 mi SSW 4.6 mph - 0.02 in Rain Light Rain
8:41 PM 42.8 °F 40.1 °F 41.0 °F 93% 29.75 in 2.5 mi SSW 4.6 mph - 0.06 in Rain Light Rain
8:50 PM 42.8 °F 39.3 °F 41.0 °F 93% 29.75 in 3.0 mi SW 5.8 mph - 0.08 in Rain Rain
8:53 PM 43.0 °F 40.3 °F 41.0 °F 93% 29.75 in 4.0 mi SSW 4.6 mph - 0.08 in Rain Rain
9:53 PM 43.0 °F 38.8 °F 41.0 °F 93% 29.71 in 9.0 mi South 6.9 mph - 0.08 in Rain Light Rain
10:24 PM 42.8 °F 39.3 °F 41.0 °F 93% 29.70 in 10.0 mi South 5.8 mph - 0.00 in Rain Light Rain
10:53 PM 44.1 °F 41.5 °F 42.1 °F 93% 29.68 in 4.0 mi SSW 4.6 mph - 0.03 in Rain Rain
11:02 PM 44.6 °F 40.7 °F 42.8 °F 93% 29.68 in 4.0 mi South 6.9 mph - 0.02 in Rain Light Rain
11:53 PM 44.1 °F 40.1 °F 42.1 °F 93% 29.67 in 8.0 mi SSE 6.9 mph - 0.15 in Rain Light Rain
11:59 PM 44.6 °F 41.4 °F 42.8 °F 93% 29.66 in 7.0 mi SSE 5.8 mph - 0.01 in Rain Light Rain